KLM0560 EHAM-BIKF

Flight info

Callsign KLM0560
Flight time 2h 37m
Altitude 40000
Route BERGI L602 SUPUR P1 GODOS DCT ROXAT DCT BAZNA DCT ERLOT DCT ROBEM DCT ORSUM DCT BALIX/M083F400 DCT BREKI DCT BASLU BASLU3K
Aircraft B789/H-SDE1E2E3FGHIJ2J3J4J5M1RWXY/LB1D1

Departure

Time 2026-04-29 18:12
Airport Amsterdam Airport Schiphol (EHAM)

Arrival

Time 2026-04-29 20:49
Airport Keflavik International Airport (BIKF)
Time Latitude Longitude Altitude Speed Heading
2026-04-29 18:07 52.31498 4.75050 7 ft 0 kts 267°
2026-04-29 18:08 52.31498 4.75046 7 ft 2 kts 267°
2026-04-29 18:08 52.31497 4.75008 7 ft 5 kts 267°
2026-04-29 18:08 52.31494 4.74930 5 ft 9 kts 267°
2026-04-29 18:08 52.31490 4.74805 5 ft 13 kts 267°
2026-04-29 18:09 52.31516 4.74681 6 ft 10 kts 330°
2026-04-29 18:09 52.31588 4.74659 5 ft 11 kts 359°
2026-04-29 18:09 52.31654 4.74703 5 ft 10 kts 50°
2026-04-29 18:09 52.31668 4.74791 5 ft 0 kts 86°
2026-04-29 18:11 52.31668 4.74794 5 ft 1 kts 86°
2026-04-29 18:11 52.31674 4.74952 3 ft 36 kts 87°
2026-04-29 18:11 52.31700 4.75712 5 ft 97 kts 86°
2026-04-29 18:11 52.31747 4.77111 5 ft 147 kts 86°
2026-04-29 18:12 52.31806 4.78908 431 ft 166 kts 86°
2026-04-29 18:12 52.32064 4.80722 1373 ft 161 kts 65°
2026-04-29 18:12 52.32757 4.82063 2464 ft 157 kts 46°
2026-04-29 18:12 52.33812 4.82776 3213 ft 174 kts 18°
2026-04-29 18:13 52.35068 4.82519 3958 ft 195 kts 345°
2026-04-29 18:13 52.36257 4.81372 4800 ft 198 kts 334°
2026-04-29 18:13 52.37446 4.80195 5584 ft 200 kts 335°
2026-04-29 18:13 52.38625 4.78989 6469 ft 195 kts 331°
2026-04-29 18:14 52.39743 4.77655 7161 ft 202 kts 329°
2026-04-29 18:14 52.40858 4.76305 7970 ft 199 kts 330°
2026-04-29 18:14 52.41994 4.74967 8689 ft 201 kts 330°
2026-04-29 18:14 52.43137 4.73625 9429 ft 203 kts 330°
2026-04-29 18:15 52.44284 4.72274 10163 ft 204 kts 330°
2026-04-29 18:15 52.45378 4.70739 10801 ft 209 kts 323°
2026-04-29 18:15 52.46419 4.69055 11444 ft 211 kts 322°
2026-04-29 18:15 52.47479 4.67358 12107 ft 213 kts 323°
2026-04-29 18:16 52.48559 4.65670 12770 ft 215 kts 323°
2026-04-29 18:16 52.49650 4.63969 13423 ft 217 kts 324°
2026-04-29 18:16 52.50750 4.62244 14081 ft 220 kts 324°
2026-04-29 18:16 52.51862 4.60500 14661 ft 222 kts 324°
2026-04-29 18:17 52.53031 4.58678 14886 ft 247 kts 323°
2026-04-29 18:17 52.54357 4.56611 15062 ft 278 kts 322°
2026-04-29 18:17 52.55825 4.54294 15230 ft 306 kts 321°
2026-04-29 18:17 52.57428 4.51759 15396 ft 334 kts 321°
2026-04-29 18:18 52.59170 4.49011 15502 ft 360 kts 320°
2026-04-29 18:18 52.61036 4.46065 15703 ft 380 kts 320°
2026-04-29 18:18 52.62937 4.43048 16486 ft 380 kts 320°
2026-04-29 18:18 52.64855 4.40010 17097 ft 385 kts 320°
2026-04-29 18:19 52.66797 4.36939 17748 ft 388 kts 320°
2026-04-29 18:19 52.68750 4.33842 18397 ft 391 kts 319°
2026-04-29 18:19 52.70716 4.30716 19001 ft 394 kts 319°
2026-04-29 18:19 52.72695 4.27566 19508 ft 397 kts 319°
2026-04-29 18:20 52.74691 4.24387 20040 ft 400 kts 319°
2026-04-29 18:20 52.76702 4.21182 20555 ft 403 kts 319°
2026-04-29 18:20 52.78702 4.17987 21047 ft 406 kts 319°
2026-04-29 18:20 52.80736 4.14733 21527 ft 409 kts 319°
2026-04-29 18:21 52.82784 4.11453 22005 ft 412 kts 319°
2026-04-29 18:21 52.84847 4.08146 22457 ft 414 kts 319°
2026-04-29 18:21 52.86950 4.04769 22896 ft 417 kts 319°
2026-04-29 18:21 52.89043 4.01402 23159 ft 424 kts 319°
2026-04-29 18:22 52.91139 3.98027 23616 ft 426 kts 319°
2026-04-29 18:22 52.93265 3.94594 24024 ft 427 kts 319°
2026-04-29 18:22 52.95402 3.91144 24343 ft 430 kts 319°
2026-04-29 18:22 52.97570 3.87640 24387 ft 436 kts 319°
2026-04-29 18:23 52.99728 3.84143 24397 ft 432 kts 319°
2026-04-29 18:23 53.01873 3.80657 24394 ft 430 kts 319°
2026-04-29 18:23 53.04007 3.77190 24391 ft 429 kts 318°
2026-04-29 18:23 53.06147 3.73711 24389 ft 428 kts 318°
2026-04-29 18:24 53.08283 3.70237 24383 ft 431 kts 318°
2026-04-29 18:24 53.09696 3.67928 24387 ft 429 kts 318°
2026-04-29 18:24 53.11818 3.64456 24398 ft 428 kts 318°
2026-04-29 18:24 53.13944 3.60979 24401 ft 428 kts 318°
2026-04-29 18:25 53.16075 3.57490 24405 ft 428 kts 319°
2026-04-29 18:25 53.18209 3.53993 24398 ft 433 kts 318°
2026-04-29 18:25 53.20362 3.50454 24402 ft 433 kts 317°
2026-04-29 18:25 53.22489 3.46948 24389 ft 428 kts 318°
2026-04-29 18:26 53.24594 3.43393 24386 ft 433 kts 313°
2026-04-29 18:26 53.26341 3.39269 24393 ft 436 kts 305°
2026-04-29 18:26 53.27989 3.35018 24399 ft 437 kts 304°
2026-04-29 18:26 53.29600 3.30787 24399 ft 436 kts 304°
2026-04-29 18:27 53.31228 3.26534 24396 ft 429 kts 304°
2026-04-29 18:27 53.32846 3.22327 24396 ft 432 kts 304°
2026-04-29 18:27 53.34478 3.18066 24398 ft 434 kts 304°
2026-04-29 18:27 53.36093 3.13840 24394 ft 431 kts 304°
2026-04-29 18:28 53.37718 3.09585 24396 ft 436 kts 304°
2026-04-29 18:28 53.39357 3.05289 24399 ft 438 kts 304°
2026-04-29 18:28 53.40981 3.01031 24402 ft 428 kts 305°
2026-04-29 18:28 53.42843 2.97122 24484 ft 431 kts 313°
2026-04-29 18:29 53.44797 2.93302 24865 ft 433 kts 313°
2026-04-29 18:29 53.46768 2.89463 25177 ft 435 kts 312°
2026-04-29 18:29 53.48738 2.85614 25565 ft 436 kts 313°
2026-04-29 18:29 53.50721 2.81729 25835 ft 439 kts 313°
2026-04-29 18:30 53.52712 2.77819 26161 ft 441 kts 313°
2026-04-29 18:30 53.54687 2.73939 26474 ft 443 kts 313°
2026-04-29 18:30 53.56690 2.69999 26781 ft 445 kts 312°
2026-04-29 18:30 53.58697 2.66041 27219 ft 443 kts 312°
2026-04-29 18:31 53.60708 2.62073 27501 ft 446 kts 312°
2026-04-29 18:31 53.62726 2.58084 27773 ft 449 kts 312°
2026-04-29 18:31 53.64764 2.54048 28100 ft 451 kts 312°
2026-04-29 18:31 53.66813 2.49980 28202 ft 458 kts 311°
2026-04-29 18:32 53.68863 2.45903 28752 ft 454 kts 311°
2026-04-29 18:32 53.72981 2.37704 29398 ft 457 kts 311°
2026-04-29 18:32 53.75041 2.33588 29682 ft 460 kts 311°
2026-04-29 18:33 53.77109 2.29451 29995 ft 462 kts 311°
2026-04-29 18:33 53.79184 2.25293 30300 ft 464 kts 311°
2026-04-29 18:33 53.81266 2.21113 30570 ft 466 kts 311°
2026-04-29 18:33 53.83358 2.16908 30830 ft 468 kts 311°
2026-04-29 18:34 53.85455 2.12682 31101 ft 469 kts 311°
2026-04-29 18:34 53.86857 2.09856 31247 ft 471 kts 311°
2026-04-29 18:34 53.89655 2.04206 31519 ft 475 kts 311°
2026-04-29 18:34 53.91785 1.99891 31851 ft 475 kts 310°
2026-04-29 18:35 53.93914 1.95573 32066 ft 478 kts 310°
2026-04-29 18:35 53.96056 1.91222 32368 ft 479 kts 310°
2026-04-29 18:35 53.98196 1.86868 32558 ft 482 kts 310°
2026-04-29 18:35 54.00345 1.82485 32909 ft 482 kts 310°
2026-04-29 18:36 54.02495 1.78093 33128 ft 484 kts 310°
2026-04-29 18:36 54.04650 1.73686 33406 ft 486 kts 310°
2026-04-29 18:36 54.06813 1.69252 33664 ft 487 kts 310°
2026-04-29 18:36 54.08979 1.64804 33896 ft 489 kts 310°
2026-04-29 18:37 54.11157 1.60322 34136 ft 491 kts 310°
2026-04-29 18:37 54.13337 1.55831 34299 ft 494 kts 310°
2026-04-29 18:37 54.15533 1.51298 34512 ft 496 kts 310°
2026-04-29 18:37 54.17705 1.46803 34698 ft 497 kts 310°
2026-04-29 18:38 54.22432 1.38143 34976 ft 500 kts 315°
2026-04-29 18:38 54.24850 1.33859 35276 ft 499 kts 315°
2026-04-29 18:38 54.27246 1.29587 35594 ft 497 kts 314°
2026-04-29 18:39 54.29636 1.25317 35866 ft 496 kts 315°
2026-04-29 18:39 54.32020 1.21058 36133 ft 495 kts 315°
2026-04-29 18:39 54.34402 1.16799 36398 ft 494 kts 315°
2026-04-29 18:39 54.36765 1.12562 36680 ft 493 kts 315°
2026-04-29 18:40 54.39144 1.08284 36954 ft 493 kts 315°
2026-04-29 18:40 54.41509 1.04031 37154 ft 494 kts 315°
2026-04-29 18:40 54.43858 0.99798 37322 ft 495 kts 315°
2026-04-29 18:40 54.46255 0.95466 37614 ft 494 kts 315°
2026-04-29 18:41 54.53321 0.82658 38500 ft 489 kts 315°
2026-04-29 18:41 54.55660 0.78403 38755 ft 489 kts 315°
2026-04-29 18:42 54.57993 0.74152 38994 ft 488 kts 315°
2026-04-29 18:42 54.60324 0.69897 39224 ft 487 kts 315°
2026-04-29 18:42 54.62649 0.65645 39398 ft 487 kts 315°
2026-04-29 18:42 54.64911 0.61501 39584 ft 487 kts 315°
2026-04-29 18:43 54.67230 0.57245 39767 ft 486 kts 315°
2026-04-29 18:43 54.69547 0.52985 39962 ft 486 kts 314°
2026-04-29 18:43 54.72581 0.47395 40075 ft 489 kts 314°
2026-04-29 18:44 54.74909 0.43096 40261 ft 489 kts 314°
2026-04-29 18:44 54.77230 0.38802 40485 ft 488 kts 314°
2026-04-29 18:44 54.81854 0.30228 40471 ft 489 kts 314°
2026-04-29 18:45 54.86474 0.21628 40471 ft 486 kts 314°
2026-04-29 18:45 54.91069 0.13047 40467 ft 485 kts 314°
2026-04-29 18:46 54.95656 0.04447 40466 ft 485 kts 314°
2026-04-29 18:46 55.00240 -0.04177 40469 ft 486 kts 314°
2026-04-29 18:47 55.04834 -0.12853 40475 ft 486 kts 314°
2026-04-29 18:47 55.09404 -0.21513 40476 ft 484 kts 314°
2026-04-29 18:48 55.13961 -0.30181 40474 ft 484 kts 314°
2026-04-29 18:48 55.18522 -0.38887 40478 ft 486 kts 313°
2026-04-29 18:49 55.23062 -0.47587 40475 ft 487 kts 313°
2026-04-29 18:49 55.27631 -0.56372 40475 ft 487 kts 313°
2026-04-29 18:50 55.31685 -0.65906 40484 ft 484 kts 306°
2026-04-29 18:50 55.35534 -0.75639 40487 ft 484 kts 306°
2026-04-29 18:51 55.39361 -0.85316 40488 ft 485 kts 306°
2026-04-29 18:51 55.43197 -0.95077 40489 ft 485 kts 305°
2026-04-29 18:52 55.47026 -1.04655 40487 ft 484 kts 307°
2026-04-29 18:52 55.50914 -1.14386 40479 ft 487 kts 306°
2026-04-29 18:53 55.54861 -1.24122 40484 ft 486 kts 306°
2026-04-29 18:53 55.58764 -1.33846 40481 ft 484 kts 306°
2026-04-29 18:54 55.62658 -1.43580 40479 ft 484 kts 306°
2026-04-29 18:54 55.66541 -1.53313 40479 ft 484 kts 306°
2026-04-29 18:55 55.70390 -1.63014 40476 ft 484 kts 306°
2026-04-29 18:55 55.74288 -1.72865 40480 ft 486 kts 306°
2026-04-29 18:56 55.78148 -1.82669 40469 ft 488 kts 306°
2026-04-29 18:56 55.82017 -1.92529 40468 ft 485 kts 306°
2026-04-29 18:57 55.85865 -2.02376 40468 ft 484 kts 306°
2026-04-29 18:57 55.89697 -2.12225 40464 ft 483 kts 305°
2026-04-29 18:58 55.93525 -2.22100 40464 ft 483 kts 305°
2026-04-29 18:58 55.97342 -2.31988 40461 ft 485 kts 305°
2026-04-29 18:59 56.01175 -2.41958 40463 ft 487 kts 305°
2026-04-29 18:59 56.04977 -2.51885 40454 ft 487 kts 305°
2026-04-29 19:00 56.08801 -2.61913 40454 ft 487 kts 305°
2026-04-29 19:00 56.12617 -2.71962 40455 ft 487 kts 304°
2026-04-29 19:01 56.16419 -2.82014 40448 ft 487 kts 304°
2026-04-29 19:01 56.20218 -2.92100 40444 ft 489 kts 304°
2026-04-29 19:02 56.23411 -3.00611 40443 ft 490 kts 304°
2026-04-29 19:02 56.27834 -3.12446 40452 ft 489 kts 304°
2026-04-29 19:03 56.31606 -3.22589 40447 ft 486 kts 304°
2026-04-29 19:03 56.35358 -3.32717 40444 ft 485 kts 304°
2026-04-29 19:04 56.39098 -3.42857 40444 ft 486 kts 304°
2026-04-29 19:04 56.42844 -3.53052 40445 ft 488 kts 304°
2026-04-29 19:05 56.46597 -3.63313 40447 ft 489 kts 304°
2026-04-29 19:05 56.50344 -3.73600 40441 ft 489 kts 304°
2026-04-29 19:06 56.53449 -3.82157 40438 ft 488 kts 303°
2026-04-29 19:07 56.59602 -3.99205 40422 ft 485 kts 303°
2026-04-29 19:07 56.62692 -4.07813 40427 ft 486 kts 303°
2026-04-29 19:08 56.66389 -4.18150 40429 ft 489 kts 303°
2026-04-29 19:08 56.70061 -4.28464 40416 ft 489 kts 303°
2026-04-29 19:09 56.73702 -4.38731 40418 ft 489 kts 303°
2026-04-29 19:09 56.77387 -4.49167 40398 ft 489 kts 303°
2026-04-29 19:10 56.81049 -4.59586 40396 ft 486 kts 302°
2026-04-29 19:10 56.84691 -4.69991 40393 ft 485 kts 302°
2026-04-29 19:11 56.88324 -4.80416 40385 ft 487 kts 302°
2026-04-29 19:11 56.91933 -4.90816 40386 ft 487 kts 302°
2026-04-29 19:12 56.95554 -5.01298 40385 ft 487 kts 302°
2026-04-29 19:12 56.99165 -5.11794 40382 ft 486 kts 302°
2026-04-29 19:13 57.02757 -5.22282 40377 ft 483 kts 302°
2026-04-29 19:13 57.06521 -5.32363 40403 ft 481 kts 310°
2026-04-29 19:14 57.10849 -5.41857 40380 ft 486 kts 310°
2026-04-29 19:14 57.15185 -5.51432 40388 ft 486 kts 309°
2026-04-29 19:15 57.19515 -5.61029 40392 ft 486 kts 309°
2026-04-29 19:15 57.23829 -5.70628 40391 ft 486 kts 309°
2026-04-29 19:16 57.28103 -5.80177 40395 ft 483 kts 309°
2026-04-29 19:16 57.32372 -5.89751 40393 ft 481 kts 309°
2026-04-29 19:17 57.36620 -5.99320 40401 ft 481 kts 309°
2026-04-29 19:17 57.40875 -6.08941 40387 ft 483 kts 309°
2026-04-29 19:18 57.45143 -6.18631 40399 ft 485 kts 309°
2026-04-29 19:18 57.49377 -6.28285 40397 ft 484 kts 308°
2026-04-29 19:19 57.53617 -6.37990 40396 ft 482 kts 308°
2026-04-29 19:19 57.57829 -6.47671 40392 ft 480 kts 308°
2026-04-29 19:20 57.62037 -6.57382 40391 ft 482 kts 308°
2026-04-29 19:20 57.66249 -6.67141 40393 ft 483 kts 308°
2026-04-29 19:21 57.70460 -6.76940 40399 ft 484 kts 308°
2026-04-29 19:21 57.74675 -6.86785 40400 ft 483 kts 307°
2026-04-29 19:22 57.78817 -6.96505 40394 ft 478 kts 307°
2026-04-29 19:22 57.82955 -7.06253 40389 ft 478 kts 307°
2026-04-29 19:23 57.87088 -7.16029 40391 ft 478 kts 307°
2026-04-29 19:23 57.91215 -7.25832 40390 ft 478 kts 307°
2026-04-29 19:24 57.95335 -7.35656 40396 ft 478 kts 307°
2026-04-29 19:24 57.99463 -7.45543 40389 ft 481 kts 306°
2026-04-29 19:25 58.03578 -7.55439 40391 ft 478 kts 306°
2026-04-29 19:25 58.07676 -7.65337 40387 ft 477 kts 306°
2026-04-29 19:26 58.11758 -7.75234 40386 ft 477 kts 306°
2026-04-29 19:26 58.15808 -7.85097 40389 ft 477 kts 306°
2026-04-29 19:27 58.19880 -7.95054 40383 ft 477 kts 306°
2026-04-29 19:27 58.23942 -8.05027 40393 ft 477 kts 306°
2026-04-29 19:28 58.27985 -8.14999 40383 ft 476 kts 305°
2026-04-29 19:28 58.32008 -8.24961 40378 ft 476 kts 305°
2026-04-29 19:29 58.36039 -8.34984 40380 ft 476 kts 305°
2026-04-29 19:29 58.40065 -8.45039 40381 ft 476 kts 305°
2026-04-29 19:30 58.44058 -8.55053 40378 ft 476 kts 305°
2026-04-29 19:30 58.48063 -8.65141 40379 ft 476 kts 305°
2026-04-29 19:31 58.52063 -8.75256 40376 ft 476 kts 305°
2026-04-29 19:31 58.56055 -8.85398 40374 ft 477 kts 304°
2026-04-29 19:32 58.60041 -8.95567 40373 ft 477 kts 304°
2026-04-29 19:32 58.64023 -9.05767 40375 ft 478 kts 304°
2026-04-29 19:33 58.67999 -9.15999 40370 ft 478 kts 304°
2026-04-29 19:33 58.71969 -9.26254 40352 ft 476 kts 304°
2026-04-29 19:34 58.75894 -9.36446 40354 ft 473 kts 304°
2026-04-29 19:34 58.79807 -9.46646 40353 ft 473 kts 303°
2026-04-29 19:35 58.83701 -9.56838 40358 ft 474 kts 303°
2026-04-29 19:35 58.87614 -9.67129 40356 ft 475 kts 303°
2026-04-29 19:36 58.91524 -9.77453 40353 ft 476 kts 303°
2026-04-29 19:36 58.95435 -9.87825 40351 ft 476 kts 303°
2026-04-29 19:37 58.99314 -9.98158 40349 ft 471 kts 303°
2026-04-29 19:37 59.03566 -10.07875 40353 ft 474 kts 308°
2026-04-29 19:38 59.07899 -10.17525 40350 ft 474 kts 308°
2026-04-29 19:38 59.12240 -10.27200 40351 ft 474 kts 308°
2026-04-29 19:39 59.16543 -10.36850 40350 ft 476 kts 307°
2026-04-29 19:39 59.20880 -10.46606 40343 ft 475 kts 307°
2026-04-29 19:40 59.25189 -10.56344 40340 ft 472 kts 307°
2026-04-29 19:40 59.29478 -10.66079 40333 ft 472 kts 307°
2026-04-29 19:41 59.33759 -10.75836 40336 ft 472 kts 307°
2026-04-29 19:41 59.38000 -10.85543 40330 ft 472 kts 306°
2026-04-29 19:42 59.42265 -10.95344 40324 ft 472 kts 306°
2026-04-29 19:42 59.46519 -11.05162 40324 ft 470 kts 306°
2026-04-29 19:43 59.50737 -11.14940 40321 ft 472 kts 306°
2026-04-29 19:43 59.54984 -11.24827 40324 ft 473 kts 306°
2026-04-29 19:44 59.59234 -11.34761 40320 ft 474 kts 306°
2026-04-29 19:44 59.63480 -11.44730 40318 ft 473 kts 306°
2026-04-29 19:45 59.67712 -11.54709 40313 ft 473 kts 305°
2026-04-29 19:45 59.71930 -11.64699 40307 ft 471 kts 305°
2026-04-29 19:46 59.76128 -11.74684 40301 ft 471 kts 305°
2026-04-29 19:46 59.80312 -11.84679 40295 ft 471 kts 305°
2026-04-29 19:47 59.84495 -11.94715 40296 ft 472 kts 305°
2026-04-29 19:47 59.88661 -12.04754 40294 ft 474 kts 305°
2026-04-29 19:48 59.92860 -12.14913 40297 ft 475 kts 304°
2026-04-29 19:48 59.97040 -12.25074 40282 ft 472 kts 304°
2026-04-29 19:49 60.01195 -12.35219 40271 ft 472 kts 304°
2026-04-29 19:49 60.05342 -12.45388 40265 ft 472 kts 304°
2026-04-29 19:50 60.09488 -12.55601 40262 ft 472 kts 304°
2026-04-29 19:50 60.13621 -12.65826 40258 ft 472 kts 304°
2026-04-29 19:51 60.17743 -12.76067 40259 ft 471 kts 303°
2026-04-29 19:51 60.21831 -12.86274 40261 ft 472 kts 303°
2026-04-29 19:52 60.25949 -12.96595 40252 ft 473 kts 303°
2026-04-29 19:52 60.29374 -13.05217 40251 ft 474 kts 303°
2026-04-29 19:53 60.33495 -13.15630 40245 ft 473 kts 303°
2026-04-29 19:53 60.38250 -13.27709 40270 ft 472 kts 303°
2026-04-29 19:54 60.43653 -13.41508 40235 ft 470 kts 303°
2026-04-29 19:54 60.47726 -13.51970 40236 ft 470 kts 303°
2026-04-29 19:55 60.51814 -13.62510 40235 ft 470 kts 302°
2026-04-29 19:55 60.55872 -13.73026 40212 ft 470 kts 302°
2026-04-29 19:56 60.59871 -13.83433 40208 ft 468 kts 302°
2026-04-29 19:56 60.63869 -13.93888 40209 ft 467 kts 301°
2026-04-29 19:57 60.67180 -14.02578 40207 ft 466 kts 301°
2026-04-29 19:57 60.71827 -14.14837 40200 ft 468 kts 301°
2026-04-29 19:58 60.75810 -14.25393 40202 ft 468 kts 301°
2026-04-29 19:58 60.79783 -14.35971 40205 ft 469 kts 301°
2026-04-29 19:59 60.83727 -14.46520 40193 ft 470 kts 301°
2026-04-29 19:59 60.87690 -14.57165 40191 ft 469 kts 301°
2026-04-29 20:00 60.91632 -14.67806 40181 ft 467 kts 301°
2026-04-29 20:00 60.95556 -14.78449 40173 ft 466 kts 301°
2026-04-29 20:01 60.99491 -14.89168 40171 ft 466 kts 301°
2026-04-29 20:01 61.03367 -14.99778 40171 ft 467 kts 301°
2026-04-29 20:02 61.07265 -15.10494 40171 ft 467 kts 300°
2026-04-29 20:02 61.10532 -15.19516 40160 ft 467 kts 300°
2026-04-29 20:03 61.15041 -15.32024 40158 ft 465 kts 300°
2026-04-29 20:03 61.18895 -15.42771 40148 ft 465 kts 300°
2026-04-29 20:04 61.22750 -15.53571 40146 ft 467 kts 299°
2026-04-29 20:04 61.26615 -15.64445 40139 ft 467 kts 299°
2026-04-29 20:05 61.30465 -15.75334 40140 ft 467 kts 299°
2026-04-29 20:05 61.34282 -15.86177 40133 ft 465 kts 298°
2026-04-29 20:06 61.38096 -15.97068 40126 ft 464 kts 298°
2026-04-29 20:06 61.41899 -16.07973 40125 ft 464 kts 298°
2026-04-29 20:07 61.45698 -16.18921 40121 ft 464 kts 298°
2026-04-29 20:07 61.49470 -16.29842 40116 ft 464 kts 298°
2026-04-29 20:08 61.52613 -16.38982 40116 ft 464 kts 298°
2026-04-29 20:08 61.56990 -16.51769 40118 ft 463 kts 297°
2026-04-29 20:09 61.60735 -16.62770 40114 ft 462 kts 297°
2026-04-29 20:09 61.64464 -16.73774 40112 ft 462 kts 297°
2026-04-29 20:10 61.68191 -16.84827 40111 ft 463 kts 297°
2026-04-29 20:10 61.71904 -16.95890 40108 ft 463 kts 297°
2026-04-29 20:11 61.75621 -17.07019 40112 ft 463 kts 297°
2026-04-29 20:11 61.79328 -17.18172 40113 ft 464 kts 297°
2026-04-29 20:12 61.82996 -17.29256 40106 ft 462 kts 297°
2026-04-29 20:12 61.86669 -17.40418 40106 ft 461 kts 296°
2026-04-29 20:13 61.89730 -17.49760 40098 ft 465 kts 296°
2026-04-29 20:13 61.94038 -17.62963 40101 ft 466 kts 296°
2026-04-29 20:14 61.97699 -17.74253 40099 ft 466 kts 296°
2026-04-29 20:14 62.01380 -17.85662 40096 ft 470 kts 296°
2026-04-29 20:15 62.05070 -17.97139 40098 ft 468 kts 296°
2026-04-29 20:15 62.08740 -18.08630 40094 ft 467 kts 296°
2026-04-29 20:16 62.12390 -18.20107 40093 ft 467 kts 296°
2026-04-29 20:16 62.16028 -18.31605 40088 ft 466 kts 296°
2026-04-29 20:17 62.19620 -18.43018 40100 ft 466 kts 296°
2026-04-29 20:17 62.23268 -18.54671 40085 ft 471 kts 296°
2026-04-29 20:18 62.26911 -18.66350 40080 ft 470 kts 296°
2026-04-29 20:18 62.30513 -18.77973 40080 ft 469 kts 296°
2026-04-29 20:19 62.34121 -18.89667 40074 ft 469 kts 296°
2026-04-29 20:19 62.37716 -19.01383 40073 ft 468 kts 295°
2026-04-29 20:20 62.41298 -19.13114 40070 ft 468 kts 295°
2026-04-29 20:20 62.44878 -19.24904 40063 ft 469 kts 296°
2026-04-29 20:21 62.48428 -19.36648 40063 ft 469 kts 295°
2026-04-29 20:21 62.51988 -19.48496 40067 ft 469 kts 295°
2026-04-29 20:22 62.55880 -19.59892 40057 ft 478 kts 302°
2026-04-29 20:22 62.60184 -19.70933 40054 ft 479 kts 303°
2026-04-29 20:23 62.64452 -19.81928 40049 ft 472 kts 302°
2026-04-29 20:23 62.68636 -19.92766 39551 ft 462 kts 302°
2026-04-29 20:24 62.70698 -19.98136 38939 ft 461 kts 301°
2026-04-29 20:24 62.72756 -20.03505 38276 ft 461 kts 301°
2026-04-29 20:24 62.74804 -20.08845 37657 ft 457 kts 300°
2026-04-29 20:24 62.76831 -20.14148 37047 ft 454 kts 299°
2026-04-29 20:25 62.78815 -20.19361 36450 ft 451 kts 298°
2026-04-29 20:25 62.80809 -20.24612 35844 ft 447 kts 297°
2026-04-29 20:25 62.82790 -20.29833 35247 ft 444 kts 296°
2026-04-29 20:25 62.84752 -20.35016 34672 ft 440 kts 295°
2026-04-29 20:26 62.86695 -20.40163 34097 ft 436 kts 295°
2026-04-29 20:26 62.88617 -20.45276 33499 ft 432 kts 295°
2026-04-29 20:26 62.90521 -20.50345 32885 ft 427 kts 294°
2026-04-29 20:26 62.92402 -20.55350 32345 ft 422 kts 294°
2026-04-29 20:27 62.94252 -20.60294 31790 ft 416 kts 293°
2026-04-29 20:27 62.95461 -20.63535 31435 ft 413 kts 292°
2026-04-29 20:27 62.97881 -20.70043 30733 ft 408 kts 292°
2026-04-29 20:27 62.99648 -20.74792 30227 ft 404 kts 292°
2026-04-29 20:28 63.01415 -20.79556 29657 ft 399 kts 291°
2026-04-29 20:28 63.03157 -20.84262 29136 ft 393 kts 291°
2026-04-29 20:28 63.04872 -20.88911 28643 ft 389 kts 291°
2026-04-29 20:28 63.06572 -20.93538 28125 ft 388 kts 291°
2026-04-29 20:29 63.08272 -20.98169 27641 ft 388 kts 291°
2026-04-29 20:29 63.09967 -21.02776 27157 ft 384 kts 291°
2026-04-29 20:29 63.11640 -21.07321 26668 ft 378 kts 291°
2026-04-29 20:29 63.13283 -21.11818 26189 ft 374 kts 291°
2026-04-29 20:30 63.14907 -21.16294 25731 ft 373 kts 291°
2026-04-29 20:30 63.16531 -21.20766 25239 ft 373 kts 291°
2026-04-29 20:30 63.18342 -21.25042 24779 ft 388 kts 301°
2026-04-29 20:30 63.20487 -21.28713 24307 ft 401 kts 311°
2026-04-29 20:31 63.22965 -21.31733 23803 ft 409 kts 319°
2026-04-29 20:31 63.25508 -21.34541 23256 ft 406 kts 319°
2026-04-29 20:31 63.28016 -21.37314 22737 ft 400 kts 319°
2026-04-29 20:31 63.30491 -21.40067 22251 ft 395 kts 319°
2026-04-29 20:32 63.32940 -21.42806 21753 ft 393 kts 319°
2026-04-29 20:32 63.35376 -21.45526 21269 ft 389 kts 320°
2026-04-29 20:32 63.37779 -21.48205 20806 ft 384 kts 320°
2026-04-29 20:32 63.39359 -21.49972 20477 ft 380 kts 320°
2026-04-29 20:33 63.42480 -21.53470 19849 ft 371 kts 321°
2026-04-29 20:33 63.44771 -21.56049 19389 ft 367 kts 321°
2026-04-29 20:33 63.47049 -21.58624 18944 ft 366 kts 321°
2026-04-29 20:33 63.49316 -21.61183 18486 ft 363 kts 321°
2026-04-29 20:34 63.51554 -21.63701 18016 ft 356 kts 321°
2026-04-29 20:34 63.53755 -21.66188 17572 ft 352 kts 321°
2026-04-29 20:34 63.55914 -21.68652 17045 ft 353 kts 321°
2026-04-29 20:34 63.58097 -21.71131 16696 ft 346 kts 322°
2026-04-29 20:35 63.60244 -21.73564 16280 ft 343 kts 322°
2026-04-29 20:35 63.62334 -21.75937 15803 ft 332 kts 322°
2026-04-29 20:35 63.64358 -21.78251 15353 ft 321 kts 321°
2026-04-29 20:35 63.66323 -21.80514 14950 ft 314 kts 322°
2026-04-29 20:36 63.68253 -21.82743 14504 ft 310 kts 322°
2026-04-29 20:36 63.69522 -21.84205 14223 ft 308 kts 322°
2026-04-29 20:36 63.71423 -21.86393 13785 ft 306 kts 322°
2026-04-29 20:36 63.73309 -21.88566 13317 ft 303 kts 322°
2026-04-29 20:37 63.75184 -21.90734 12848 ft 301 kts 323°
2026-04-29 20:37 63.77043 -21.92883 12383 ft 299 kts 323°
2026-04-29 20:37 63.78889 -21.95015 11917 ft 296 kts 323°
2026-04-29 20:37 63.80718 -21.97132 11478 ft 294 kts 323°
2026-04-29 20:38 63.82508 -21.99209 11045 ft 291 kts 323°
2026-04-29 20:38 63.84305 -22.01297 10616 ft 289 kts 324°
2026-04-29 20:38 63.86088 -22.03370 10186 ft 287 kts 324°
2026-04-29 20:38 63.87855 -22.05428 9748 ft 284 kts 324°
2026-04-29 20:39 63.89605 -22.07470 9282 ft 281 kts 324°
2026-04-29 20:39 63.91340 -22.09498 8829 ft 279 kts 325°
2026-04-29 20:39 63.93061 -22.11508 8409 ft 277 kts 325°
2026-04-29 20:39 63.94775 -22.13514 7974 ft 274 kts 325°
2026-04-29 20:40 63.96453 -22.15481 7973 ft 276 kts 325°
2026-04-29 20:40 63.98153 -22.17486 7793 ft 274 kts 325°
2026-04-29 20:40 63.99849 -22.19480 7403 ft 274 kts 325°
2026-04-29 20:40 64.01535 -22.21462 7019 ft 272 kts 326°
2026-04-29 20:41 64.03185 -22.23407 6636 ft 270 kts 326°
2026-04-29 20:41 64.04833 -22.25350 6244 ft 257 kts 326°
2026-04-29 20:41 64.06363 -22.27139 5803 ft 237 kts 325°
2026-04-29 20:41 64.07789 -22.28828 5370 ft 227 kts 324°
2026-04-29 20:42 64.09172 -22.30487 4939 ft 222 kts 323°
2026-04-29 20:42 64.10393 -22.32489 4558 ft 214 kts 313°
2026-04-29 20:42 64.11583 -22.34552 4182 ft 214 kts 315°
2026-04-29 20:42 64.12776 -22.36579 3798 ft 213 kts 315°
2026-04-29 20:43 64.13964 -22.38616 3419 ft 213 kts 315°
2026-04-29 20:43 64.15097 -22.40777 3010 ft 209 kts 302°
2026-04-29 20:43 64.15672 -22.43561 2932 ft 184 kts 276°
2026-04-29 20:43 64.15684 -22.46411 2941 ft 180 kts 253°
2026-04-29 20:44 64.15292 -22.49082 2935 ft 176 kts 245°
2026-04-29 20:44 64.14868 -22.51712 2947 ft 176 kts 244°
2026-04-29 20:44 64.14448 -22.54346 2953 ft 176 kts 245°
2026-04-29 20:44 64.14012 -22.56975 2935 ft 176 kts 240°
2026-04-29 20:45 64.13282 -22.59053 2926 ft 159 kts 220°
2026-04-29 20:45 64.12331 -22.60249 2923 ft 154 kts 202°
2026-04-29 20:45 64.11272 -22.60573 2940 ft 158 kts 186°
2026-04-29 20:45 64.10177 -22.60535 2917 ft 158 kts 184°
2026-04-29 20:46 64.09092 -22.60386 2792 ft 155 kts 182°
2026-04-29 20:46 64.08054 -22.60248 2530 ft 145 kts 186°
2026-04-29 20:46 64.07073 -22.60265 2291 ft 137 kts 189°
2026-04-29 20:46 64.06138 -22.60348 2088 ft 134 kts 189°
2026-04-29 20:47 64.05212 -22.60388 1888 ft 132 kts 187°
2026-04-29 20:47 64.04275 -22.60454 1582 ft 136 kts 190°
2026-04-29 20:47 64.03316 -22.60496 1251 ft 139 kts 187°
2026-04-29 20:47 64.02359 -22.60512 981 ft 136 kts 187°
2026-04-29 20:48 64.01433 -22.60514 751 ft 131 kts 186°
2026-04-29 20:48 64.00536 -22.60523 542 ft 126 kts 187°
2026-04-29 20:48 63.99672 -22.60534 309 ft 120 kts 188°
2026-04-29 20:48 63.98876 -22.60525 209 ft 108 kts 192°
2026-04-29 20:49 63.98229 -22.60555 179 ft 70 kts 179°
2026-04-29 20:49 63.97875 -22.60547 177 ft 44 kts 181°
2026-04-29 20:49 63.97599 -22.60552 180 ft 36 kts 180°
2026-04-29 20:49 63.97461 -22.60582 178 ft 14 kts 214°
2026-04-29 20:50 63.97441 -22.60758 174 ft 12 kts 278°
2026-04-29 20:50 63.97465 -22.60909 172 ft 5 kts 311°
2026-04-29 20:50 63.97504 -22.60938 171 ft 8 kts 352°
2026-04-29 20:50 63.97569 -22.60941 173 ft 10 kts 359°
2026-04-29 20:51 63.97646 -22.60940 174 ft 12 kts
2026-04-29 20:51 63.97738 -22.60939 175 ft 14 kts
2026-04-29 20:51 63.97846 -22.60939 175 ft 17 kts 360°
2026-04-29 20:51 63.97979 -22.60940 175 ft 21 kts 360°
2026-04-29 20:52 63.98136 -22.60941 172 ft 24 kts
2026-04-29 20:52 63.98295 -22.60940 171 ft 24 kts 359°
2026-04-29 20:52 63.98467 -22.60940 175 ft 26 kts
2026-04-29 20:52 63.98657 -22.60939 172 ft 29 kts 360°
2026-04-29 20:53 63.98817 -22.60939 172 ft 14 kts 355°
2026-04-29 20:53 63.98853 -22.61060 170 ft 11 kts 277°
2026-04-29 20:53 63.98855 -22.61268 166 ft 15 kts 270°
2026-04-29 20:53 63.98854 -22.61546 161 ft 20 kts 269°
2026-04-29 20:54 63.98854 -22.62240 154 ft 24 kts 270°
2026-04-29 20:54 63.98853 -22.62630 147 ft 17 kts 270°
2026-04-29 20:54 63.98858 -22.62813 144 ft 7 kts 291°
2026-04-29 20:55 63.98878 -22.62852 144 ft 2 kts 334°
2026-04-29 20:55 63.98901 -22.62855 144 ft 6 kts
2026-04-29 20:55 63.98952 -22.62829 145 ft 9 kts 15°
2026-04-29 20:55 63.99017 -22.62784 146 ft 11 kts 17°
2026-04-29 20:56 63.99091 -22.62732 147 ft 12 kts 17°
2026-04-29 20:56 63.99167 -22.62681 148 ft 9 kts 14°
2026-04-29 20:56 63.99234 -22.62688 148 ft 9 kts 335°
2026-04-29 20:56 63.99295 -22.62746 148 ft 10 kts 356°
2026-04-29 20:57 63.99361 -22.62742 148 ft 9 kts
2026-04-29 20:57 63.99389 -22.62718 148 ft 2 kts 38°
2026-04-29 20:57 63.99392 -22.62691 148 ft 2 kts 71°
2026-04-29 20:57 63.99389 -22.62642 148 ft 4 kts 103°
2026-04-29 20:58 63.99380 -22.62593 148 ft 2 kts 112°
2026-04-29 20:58 63.99375 -22.62566 148 ft 0 kts 114°
2026-04-29 21:21 63.99375 -22.62565 151 ft 0 kts 114°